CAPE
734 636 659 733 690 432 307 434 163 124 20 3 11 28 64 45 58 75 134 74 40 34 29 17 1 47 519 680 651 870 639 365 79 55 13 5 2 0 3 7 25 70 111
549 707 782 697 676 484 324 288 222 103 2 17 17 36 40 50 199 108 44 210 17 21 18 9 68 76 411 988 917 900 774 377 51 80 60 24 3 0 9 21 58 95 103
547 974 856 768 571 482 298 193 220 219 7 5 33 44 37 26 49 183 101 159 44 20 7 0 13 114 310 1109 1170 1046 796 405 136 105 57 7 0 0 26 46 84 82 56
857 1028 923 627 548 546 314 210 209 135 121 19 1 41 57 50 35 76 72 127 139 80 17 0 0 13 134 1194 1249 1061 844 471 180 87 31 7 4 11 10 1 58 17 17
902 932 790 659 788 543 416 242 215 74 36 75 4 1 51 156 200 113 51 108 85 30 124 35 0 14 117 1167 1283 1174 923 461 142 60 48 13 16 0 16 62 23 13 9
866 839 724 867 771 470 359 259 109 18 30 31 62 57 97 130 202 170 117 90 28 0 67 479 84 0 483 1056 1218 1166 979 511 159 67 13 0 0 3 86 35 22 12 5
708 707 730 677 584 471 381 139 97 45 30 54 99 73 47 69 94 126 208 18 0 10 101 287 102 252 472 774 1136 969 772 373 127 55 0 0 2 63 45 27 24 24 28
535 545 752 565 622 459 238 191 93 0 2 26 9 20 4 21 72 115 131 48 247 198 237 472 456 694 1065 907 1061 904 688 515 238 53 1 0 18 43 24 32 29 8 0
628 666 649 592 493 313 171 161 117 97 134 121 29 12 14 4 1 51 107 163 498 355 479 520 740 1029 668 686 721 682 671 551 308 114 1 4 42 11 34 41 21 0 0
613 388 465 366 221 291 265 210 155 126 143 34 131 86 74 62 12 14 87 156 220 99 380 442 680 476 383 68 22 159 339 320 205 106 34 56 15 20 13 27 4 1 0
635 495 447 368 230 273 258 201 283 136 167 129 166 107 58 103 62 17 12 26 314 98 329 762 779 248 52 23 0 0 0 194 158 107 91 22 34 39 0 0 2 0 0
604 612 396 290 307 214 317 406 255 186 171 187 209 191 261 133 31 19 70 60 84 146 165 478 706 755 229 7 50 18 21 70 67 60 10 19 8 0 0 34 12 25 18
510 547 321 188 348 411 332 232 83 155 165 108 119 149 251 290 230 140 78 90 165 359 473 546 770 661 292 117 69 48 3 10 0 1 40 0 0 6 37 25 27 13 15
472 104 105 289 456 400 202 132 131 105 144 280 96 127 284 223 269 61 60 144 168 227 216 169 305 374 312 237 73 2 0 0 0 0 0 1 30 35 24 30 8 12 1
135 159 194 369 411 343 216 189 106 208 169 33 129 165 139 251 149 123 7 5 81 35 141 120 83 114 126 54 3 3 5 1 0 3 1 0 17 27 44 10 0 0 0
149 187 421 472 358 300 333 233 203 411 51 4 65 256 241 172 157 144 192 136 219 159 94 59 1 14 4 3 2 0 3 1 4 1 4 6 26 30 9 0 0 0 0
66 101 251 441 329 371 268 76 130 40 14 28 4 3 85 64 105 129 194 142 180 101 36 3 2 2 2 3 7 14 9 4 0 0 9 15 13 0 0 0 0 0 0
24 24 150 157 152 320 393 306 208 223 251 44 27 52 11 78 91 121 136 117 99 47 2 2 2 2 2 10 9 1 4 14 4 1 0 16 14 0 0 0 0 0 0
12 31 28 43 84 274 106 142 226 147 68 78 68 71 53 110 114 52 14 28 51 21 3 2 5 3 9 12 2 3 2 1 0 3 8 2 0 0 0 0 0 0 0
12 44 57 83 103 35 18 56 73 88 161 132 87 186 46 11 2 16 41 35 31 16 4 5 6 11 2 2 1 1 1 2 3 0 0 0 0 0 0 0 0 0 0
11 66 113 86 9 1 11 64 29 169 119 151 129 103 2 5 7 22 20 16 11 5 4 8 10 4 2 2 1 1 1 0 0 0 0 0 0 0 0 0 0 0 0
20 72 98 0 2 0 0 0 12 124 82 125 96 16 0 0 0 0 1 0 0 0 3 4 3 2 2 0 0 0 0 0 0 0 0 0 0 0 0 0 0 0 0
18 52 90 28 0 0 0 0 0 134 100 64 40 42 14 2 1 0 0 0 0 0 0 0 1 1 0 0 0 1 0 0 0 0 0 0 0 0 0 0 0 0 0
31 32 73 27 0 0 0 0 0 83 56 46 37 29 3 18 3 0 1 0 1 0 0 0 0 0 0 0 0 0 0 0 0 0 0 0 0 0 0 0 0 0 0
100 76 100 32 0 0 0 0 48 89 39 51 41 8 3 0 0 0 0 1 0 0 0 0 0 0 0 0 1 0 1 0 0 0 0 0 0 0 0 0 0 0 0
44 35 29 19 0 0 0 0 0 64 3 2 4 0 0 0 0 0 1 1 1 0 0 0 0 0 0 0 0 12 0 0 0 0 0 0 0 0 0 0 0 0 0
CIN
-147 -139 -91 -44 -30 -36 -19 -5 -23 -28 -94 -18 -18 -31 -86 -7 -24 -78 -59 -55 -99 -46 -47 -43 -8 -102 -3 -5 -11 -0 -0 -8 -19 -6 -44 -22 -0 -0 -0 -8 -11 -3 -6
-168 -91 -36 -46 -43 -56 -49 -23 -11 -15 -7 -7 -13 -16 -20 -14 -22 -66 -20 -37 -30 -49 -59 -52 -68 -48 -6 -0 -3 -0 -0 -5 -25 -5 -20 -26 -33 -0 -30 -15 -1 -3 -8
-149 -57 -34 -10 -37 -35 -34 -21 -11 -8 -26 -16 -10 -16 -19 -21 -13 -56 -143 -49 -111 -36 -47 -0 -45 -27 -13 -0 -0 -0 -0 -1 -7 -35 -61 -83 -4 -0 -9 -13 -0 -1 -7
-89 -32 -22 -27 -12 -24 -31 -19 -8 -10 -4 -15 -5 -7 -5 -7 -20 -16 -57 -70 -79 -99 -47 -0 -0 -38 -33 -0 -0 -0 -0 -9 -23 -71 -91 -45 -74 -35 -26 -8 -1 -25 -47
-72 -48 -26 -7 -7 -14 -14 -13 -6 -13 -16 -13 -24 -1 -17 -18 -17 -21 -37 -92 -52 -59 -60 -84 -0 -31 -20 -1 -0 -0 -0 -12 -32 -37 -47 -61 -31 -8 -17 -0 -19 -60 -85
-33 -19 -9 -3 -9 -17 -10 -3 -16 -53 -36 -9 -14 -13 -10 -8 -11 -18 -28 -41 -10 -0 -39 -14 -70 -0 -22 -4 -0 -0 -0 -5 -22 -46 -60 -0 -5 -11 -1 -21 -22 -22 -103
-15 -6 -6 -11 -15 -8 -2 -4 -3 -18 -18 -14 -7 -9 -18 -16 -16 -12 -11 -11 -0 -11 -54 -18 -46 -16 -31 -16 -2 -0 -0 -3 -24 -39 -0 -0 -33 -1 -10 -22 -41 -30 -26
-21 -6 -6 -12 -4 -1 -8 -4 -9 -1 -22 -32 -46 -9 -12 -9 -21 -23 -12 -8 -8 -6 -9 -3 -8 -8 -6 -11 -2 -0 -0 -3 -7 -17 -12 -0 -8 -20 -43 -12 -18 -27 -1
-16 -7 -11 -6 -3 -6 -13 -9 -10 -11 -5 -10 -23 -17 -16 -14 -10 -23 -13 -9 -11 -16 -8 -7 -19 -8 -30 -24 -8 -2 -0 -0 -0 -5 -6 -39 -45 -18 -9 -13 -25 -13 -0
-11 -25 -16 -9 -9 -2 -2 -5 -16 -22 -11 -24 -5 -21 -32 -17 -4 -8 -9 -11 -18 -17 -3 -15 -14 -44 -42 -141 -132 -50 -11 -0 -0 -23 -24 -23 -16 -4 -19 -23 -8 -0 -0
-12 -17 -4 -8 -12 -5 -9 -12 -7 -22 -20 -13 -12 -26 -30 -7 -28 -48 -11 -33 -14 -24 -21 -8 -3 -61 -92 -126 -0 -0 -5 -4 -14 -3 -0 -32 -1 -5 -0 -0 -0 -0 -0
-14 -5 -3 -7 -6 -15 -7 -5 -11 -12 -19 -28 -20 -28 -22 -10 -65 -23 -17 -28 -23 -17 -21 -11 -13 -2 -44 -47 -70 -56 -46 -37 -10 -2 -5 -1 -2 -0 -0 -15 -16 -64 -87
-8 -1 -4 -14 -4 -3 -6 -5 -21 -16 -16 -38 -25 -39 -27 -18 -17 -12 -23 -25 -19 -0 -1 -3 -0 -0 -9 -27 -27 -24 -15 -132 -59 -2 -6 -0 -0 -1 -2 -4 -26 -52 -80
-4 -29 -14 -9 -2 -1 -8 -9 -15 -15 -15 -15 -26 -31 -20 -15 -10 -46 -50 -16 -4 -3 -2 -9 -11 -10 -7 -0 -18 -3 -0 -0 -0 -0 -0 -11 -2 -5 -4 -4 -12 -47 -53
-16 -4 -5 -3 -1 -3 -8 -3 -17 -17 -20 -44 -24 -14 -15 -29 -20 -55 -9 -52 -33 -53 -2 -6 -14 -16 -20 -43 -0 -0 -0 -1 -1 -3 -0 -0 -25 -16 -3 -4 -0 -0 -0
-16 -13 -3 -5 -8 -3 -3 -11 -15 -6 -34 -33 -53 -8 -12 -24 -26 -42 -54 -17 -10 -43 -48 -44 -0 -41 -10 -0 -0 -0 -1 -1 -1 -6 -45 -16 -14 -6 -3 -0 -0 -0 -0
-25 -24 -9 -3 -6 -5 -11 -26 -26 -52 -69 -63 -71 -16 -29 -49 -24 -18 -16 -21 -14 -48 -73 -5 -0 -0 -0 -0 -0 -0 -0 -1 -1 -20 -38 -13 -6 -0 -0 -0 -0 -0 -0
-18 -110 -34 -27 -9 -6 -8 -3 -7 -7 -7 -42 -43 -36 -51 -21 -16 -32 -43 -36 -24 -61 -92 -0 -0 -0 -0 -0 -0 -0 -4 -0 -4 -4 -0 -8 -12 -0 -0 -0 -0 -0 -0
-8 -68 -114 -94 -38 -13 -22 -11 -5 -14 -23 -22 -19 -14 -9 -9 -20 -32 -50 -63 -51 -28 -34 -0 -0 -0 -0 -0 -1 -6 -0 -0 -0 -12 -18 -19 -0 -0 -0 -0 -0 -0 -0
-6 -50 -47 -25 -21 -58 -48 -20 -10 -5 -8 -10 -25 -15 -41 -50 -46 -34 -29 -24 -21 -13 -22 -3 -0 -0 -2 -0 -0 -0 -0 -0 -0 -0 -0 -0 -0 -0 -0 -0 -0 -0 -0
-3 -20 -8 -27 -38 -1 -46 -28 -12 -2 -9 -10 -11 -16 -46 -50 -32 -8 -24 -21 -36 -5 -0 -0 -0 -0 -0 -0 -0 -0 -0 -0 -0 -0 -0 -0 -0 -0 -0 -0 -0 -0 -0
-7 -14 -24 -0 -4 -0 -0 -0 -26 -7 -10 -11 -6 -51 -41 -1 -0 -2 -13 -7 -0 -0 -0 -22 -19 -0 -0 -0 -0 -0 -0 -0 -0 -0 -0 -0 -0 -0 -0 -0 -0 -0 -0
-23 -13 -12 -18 -0 -0 -0 -0 -0 -4 -10 -9 -4 -2 -21 -33 -25 -0 -0 -0 -0 -0 -0 -0 -0 -0 -0 -0 -0 -0 -0 -0 -0 -0 -0 -0 -0 -0 -0 -0 -0 -0 -0
-24 -22 -4 -18 -0 -0 -0 -0 -0 -7 -4 -3 -4 -6 -18 -12 -41 -0 -0 -0 -0 -0 -0 -0 -0 -0 -0 -0 -0 -0 -0 -0 -0 -0 -0 -0 -0 -0 -0 -0 -0 -0 -0
-22 -70 -4 -18 -0 -0 -0 -0 -21 -3 -4 -1 -2 -2 -1 -0 -0 -0 -0 -0 -0 -0 -0 -0 -0 -0 -0 -0 -36 -0 -1 -0 -0 -1 -0 -0 -0 -0 -0 -0 -0 -0 -0
-8 -9 -12 -9 -0 -0 -0 -0 -0 -11 -13 -26 -11 -0 -0 -0 -0 -0 -0 -0 -0 -0 -0 -0 -0 -0 -0 -0 -0 -2 -0 -0 -0 -0 -0 -0 -0 -0 -0 -0 -0 -0 -0
Wind_Speed
10 11 11 13 15 19 20 15 16 19 20 20 21 23 20 22 21 24 20 14 13 16 18 20 21 20 20 17 14 12 10 8 8 7 4 3 1 2 1 2 8 8 6
10 12 13 14 17 19 17 21 20 20 19 16 19 22 25 25 21 25 22 18 17 18 19 18 19 20 21 18 15 12 9 8 7 7 6 4 1 1 3 3 9 1 6
11 14 15 17 17 16 18 18 20 18 20 20 20 12 19 23 25 22 23 17 19 19 19 16 17 19 20 19 15 12 9 7 8 9 9 3 5 1 7 6 5 5 8
12 14 15 17 18 17 17 17 18 19 20 20 23 23 16 21 20 22 22 22 18 20 18 15 15 17 19 19 15 12 10 9 11 10 8 6 4 6 5 4 4 4 6
12 13 16 19 20 19 16 17 16 18 19 19 23 21 20 19 19 18 17 22 23 22 15 16 15 17 17 17 13 11 11 11 11 11 8 7 4 4 5 5 6 7 7
13 15 17 17 18 18 18 16 17 17 18 18 19 19 20 19 18 18 18 20 20 24 22 18 14 17 17 15 11 11 12 13 13 10 9 6 3 5 8 9 8 8 10
16 17 18 18 18 17 14 16 16 16 18 16 17 19 21 22 21 24 21 16 18 19 20 11 11 17 16 13 11 13 13 14 13 10 8 7 4 6 9 11 12 13 10
17 17 17 18 17 14 14 13 12 12 10 10 16 18 18 18 22 22 22 16 16 16 20 19 14 14 13 14 12 15 16 16 14 11 9 7 7 9 8 8 12 13 11
17 17 16 16 14 11 10 8 7 6 9 10 5 12 13 14 14 17 16 14 13 17 19 12 13 11 11 12 12 15 17 17 14 11 9 8 12 12 9 11 13 15 12
13 15 14 13 10 9 9 7 5 3 7 7 10 5 21 16 12 11 16 16 15 18 17 9 7 7 8 9 10 15 18 25 13 14 11 16 15 14 11 13 13 10 11
16 15 13 11 9 8 7 9 10 12 9 10 7 6 10 19 17 22 12 16 17 17 12 7 6 6 6 9 12 14 10 11 12 10 15 17 10 11 10 10 9 7 11
13 10 11 9 10 10 11 12 15 15 16 16 19 21 25 16 4 16 13 8 8 12 13 11 7 5 5 7 7 7 7 10 8 16 18 12 10 8 9 11 8 10 11
11 11 11 12 12 13 13 15 16 16 16 17 20 22 23 23 16 12 15 3 6 11 10 10 9 6 5 4 2 2 4 11 19 16 16 11 10 8 7 5 10 9 10
13 13 14 13 14 15 17 17 16 14 15 17 20 23 22 21 10 8 12 12 1 11 12 12 10 9 8 8 4 7 11 14 13 18 14 11 7 9 6 9 9 7 7
15 16 15 15 16 17 16 16 14 14 14 17 18 20 21 19 17 10 25 26 2 7 14 14 15 11 6 4 7 7 11 12 13 17 13 9 10 8 11 7 5 6 7
15 15 16 16 16 16 16 15 15 15 16 15 18 18 19 19 17 10 26 28 10 7 14 17 14 11 6 6 10 12 17 19 15 17 14 15 12 11 7 3 4 7 8
14 15 16 15 16 17 17 17 17 17 17 16 18 17 15 18 18 20 17 10 1 4 6 12 9 6 7 9 11 13 12 12 14 15 13 10 11 7 6 6 5 7 8
15 18 17 16 15 16 17 16 17 17 16 17 17 15 16 20 7 7 4 3 6 7 2 4 5 5 7 10 12 14 11 11 11 12 11 10 9 8 7 10 5 6 9
12 19 16 14 13 15 17 18 18 18 17 17 17 18 21 24 19 12 7 11 8 7 6 9 8 9 9 15 17 16 13 11 7 10 7 4 6 4 7 5 6 8 12
11 10 10 12 14 14 7 18 17 17 17 18 20 16 12 9 10 6 14 17 17 15 16 15 14 15 18 20 15 18 11 9 9 9 6 3 5 5 8 8 12 13 13
13 10 11 14 12 12 10 12 18 17 20 21 21 20 17 8 16 24 25 27 30 35 34 15 17 16 17 15 14 12 13 11 6 10 9 3 7 7 5 11 12 12 13
10 11 11 13 18 10 9 9 10 21 21 23 23 25 24 14 20 29 30 28 31 38 39 18 16 16 22 14 30 30 26 28 10 8 11 11 5 4 8 10 12 13 14
12 11 12 10 9 7 7 8 9 21 23 22 21 24 6 16 28 21 22 25 30 31 40 43 34 29 26 34 37 35 28 18 16 17 13 12 16 17 10 12 13 14 14
16 15 12 10 7 6 9 8 8 15 18 23 25 21 22 14 26 25 19 20 13 16 21 30 26 37 40 43 38 33 27 13 17 19 25 22 17 14 12 12 13 14 14
20 17 9 11 6 9 10 9 8 8 10 5 5 18 11 16 20 23 23 20 16 13 11 11 17 38 38 38 35 31 22 22 22 25 24 15 14 13 12 11 12 12 13
20 17 11 6 5 11 13 11 8 7 14 10 7 13 18 23 26 26 26 26 21 23 24 13 12 35 37 34 5 11 28 29 25 21 20 15 15 14 13 11 10 11 10
Wind_Direction
331 339 340 344 347 343 340 342 340 333 320 315 311 303 305 295 288 282 289 285 282 283 284 282 276 270 270 271 266 258 248 231 234 226 215 237 281 307 322 105 124 119 94
334 337 337 335 337 335 334 327 327 326 323 321 317 304 294 291 288 282 279 279 282 284 287 283 273 268 266 266 266 251 239 226 222 209 230 253 280 34 81 78 112 50 49
330 335 335 335 334 336 330 326 324 324 318 312 311 314 304 287 283 282 277 286 284 285 284 278 271 267 264 264 262 250 229 203 195 204 164 211 147 127 104 96 97 76 66
331 333 330 329 331 334 331 325 321 318 316 309 301 307 300 294 285 279 279 277 284 286 283 278 272 266 262 262 256 242 217 181 175 183 199 183 147 130 115 95 103 74 73
326 326 328 329 332 331 328 324 321 319 311 309 296 301 298 298 289 284 282 276 270 278 286 277 273 265 261 259 249 224 200 186 179 180 206 161 157 126 122 103 110 97 79
326 326 327 327 330 328 326 324 318 317 312 307 303 299 297 294 288 281 279 276 276 268 274 281 271 266 260 254 236 205 191 183 176 171 167 192 166 125 114 112 104 88 86
330 328 327 328 329 327 327 326 324 319 309 306 302 300 295 285 281 271 276 280 273 273 269 280 285 268 259 246 221 193 179 173 175 180 182 173 161 136 128 114 108 102 83
330 330 331 330 331 332 330 331 332 332 328 320 300 299 299 289 276 273 271 276 274 272 270 271 273 276 263 251 225 192 181 175 173 180 192 177 157 134 131 115 105 95 76
340 341 340 341 341 345 342 350 350 348 332 323 318 308 308 303 280 275 273 275 274 272 265 276 277 270 266 248 231 228 189 181 176 177 178 173 142 131 123 112 103 99 89
349 352 350 357 3 12 9 11 19 27 349 340 328 166 276 293 296 283 271 271 273 261 271 271 266 272 265 245 239 242 241 176 174 153 168 147 136 126 123 111 105 90 76
354 353 2 15 29 51 86 116 138 157 129 142 117 339 288 280 283 242 278 261 263 260 268 266 260 269 262 249 248 251 243 117 214 178 152 149 147 131 122 111 101 78 82
2 21 28 57 80 107 137 151 162 153 151 155 183 181 199 271 63 155 274 264 258 263 266 264 258 259 261 251 258 238 197 192 169 139 141 139 144 145 121 112 94 90 82
38 49 64 74 95 117 115 135 137 145 153 175 189 189 189 227 282 282 262 257 252 259 269 265 257 254 245 234 224 142 159 140 133 121 125 138 148 133 118 111 95 80 69
56 92 93 81 101 107 121 133 128 130 151 184 200 193 215 223 328 332 267 254 236 255 252 247 251 246 235 237 185 126 131 137 141 118 140 155 153 115 111 97 84 59 35
82 87 65 88 103 133 141 120 87 115 97 227 207 212 207 233 256 300 222 161 254 240 238 239 236 237 226 182 141 146 135 137 127 124 137 145 122 113 98 87 52 25 13
74 50 63 72 69 110 104 93 93 101 128 137 234 231 221 223 243 43 167 148 244 225 226 224 226 224 191 148 125 123 114 118 125 113 117 118 115 103 93 48 16 21 345
54 64 69 55 75 88 92 104 105 100 100 152 217 245 270 240 147 117 101 97 236 225 223 223 220 205 138 128 126 128 136 141 124 111 118 122 107 99 80 51 14 13 346
78 101 93 73 77 56 84 97 96 114 105 134 142 210 178 194 19 48 55 30 233 227 153 138 170 172 141 135 138 133 134 145 126 117 121 111 100 84 61 53 15 347 15
91 129 71 29 358 25 60 78 81 125 154 153 159 179 111 140 123 66 51 64 58 67 87 113 121 135 136 124 136 130 135 140 133 114 136 141 82 59 49 18 359 9 33
53 23 344 357 11 5 61 142 156 166 148 135 128 161 237 294 239 198 102 90 87 89 108 110 132 136 155 162 143 123 139 113 125 180 190 89 65 42 45 29 48 54 40
77 37 10 17 350 358 300 226 153 153 120 76 116 134 59 232 186 125 112 114 116 120 116 128 144 137 158 144 128 165 125 121 156 199 92 65 61 41 3 41 45 35 33
19 26 21 29 117 337 311 288 236 116 129 114 86 94 85 174 157 110 110 107 114 125 124 155 134 133 176 141 115 117 116 117 102 205 83 77 52 10 18 12 39 37 34
54 44 50 15 5 346 278 273 274 80 90 133 72 84 5 167 108 82 89 94 104 166 149 129 117 116 117 123 125 122 115 104 98 106 93 78 82 83 27 41 41 39 35
86 83 54 44 15 294 242 270 277 36 55 100 130 69 99 104 99 95 91 95 100 122 174 175 107 124 133 138 141 122 114 90 95 102 115 112 98 70 51 47 43 38 34
120 94 46 59 17 257 253 256 296 354 13 342 358 60 35 59 76 89 96 102 103 139 161 141 122 123 123 131 142 124 107 105 107 123 133 84 89 61 65 61 49 47 42
102 89 57 24 337 254 242 248 267 4 49 31 356 40 65 80 93 100 106 107 105 120 113 131 156 130 137 137 187 114 123 129 122 119 137 81 92 67 52 52 55 49 49